Regional Weather Roundup
Issued by NWS

Home | Current Version | Previous Version | Text Only | Print | Product List | Glossary Off
Versions: 1 2 3 4 5 6 7 8 9 10 11 12 13 14 15 16 17 18 19 20 21 22 23 24 25 26 27 28 29 30 31 32 33 34 35 36 37 38 39 40 41 42 43 44 45 46 47 48 49 50

000
ASUS43 KOAX 281202
RWRNE

WEATHER ROUNDUP FOR NEBRASKA
NATIONAL WEATHER SERVICE OMAHA NE
700 AM CDT TUE APR 28 2015

NOTES: SATELLITE DATA IS BEING USED TO AUGMENT CLOUD COVER ABOVE
       12000 FEET.
       "FAIR" INDICATES FEW OR NO CLOUDS BELOW 12,000 FEET WITH NO
       SIGNIFICANT WEATHER AND/OR OBSTRUCTIONS TO VISIBILITY.

  * THESE STATIONS DO NOT REPORT WEATHER SUCH AS RAIN...SNOW OR FOG.

NEZ001>004-019>022-054>056-281300-
NEBRASKA PANHANDLE

CITY           SKY/WX    TMP DP  RH WIND       PRES   REMARKS
SCOTTSBLUFF    CLOUDY    43  50 100 E5        30.35S
6HR MIN TEMP:  43; 6HR MAX TEMP:  47;

ALLIANCE       CLOUDY    42  40  92 CALM      30.34R
6HR MIN TEMP:  38; 6HR MAX TEMP:  42;

CHADRON        CLOUDY    44  42  93 W3        30.34S
6HR MIN TEMP:  44; 6HR MAX TEMP:  46;

KIMBALL        CLOUDY    41  40  97 NE3       30.32S
SIDNEY         CLOUDY    42  40  92 N9        30.35R
6HR MIN TEMP:  42; 6HR MAX TEMP:  46;

$$

NEZ057>060-069>072-079>082-281300-
SOUTHWEST NEBRASKA

CITY           SKY/WX    TMP DP  RH WIND       PRES   REMARKS
NORTH PLATTE   PTCLDY    41  38  89 NW8       30.32R
6HR MIN TEMP:  38; 6HR MAX TEMP:  50;

IMPERIAL       PTCLDY    40  37  89 N9        30.32R WCI  34
6HR MIN TEMP:  40; 6HR MAX TEMP:  50;

MCCOOK         PTCLDY    44  40  85 N3        30.28R
6HR MIN TEMP:  40; 6HR MAX TEMP:  48;

$$

NEZ005>010-023>029-035>040-094-281300-
NORTH CENTRAL NEBRASKA

CITY           SKY/WX    TMP DP  RH WIND       PRES   REMARKS
VALENTINE      CLOUDY    40  38  93 NW6       30.33S
6HR MIN TEMP:  37; 6HR MAX TEMP:  46;

AINSWORTH      CLOUDY    42  41  96 NW8       30.31S
BROKEN BOW     CLEAR     43  40  89 N15       30.28R
6HR MIN TEMP:  43; 6HR MAX TEMP:  51;

O`NEILL        CLEAR     42  41  97 NW10      30.28R FOG
ORD            CLEAR     41  38  89 NW8       30.27R FOG
6HR MIN TEMP:  41; 6HR MAX TEMP:  50;

$$

NEZ041-046>049-061>064-073>077-083>087-281300-
SOUTH CENTRAL NEBRASKA

CITY           SKY/WX    TMP DP  RH WIND       PRES   REMARKS
GRAND ISLAND   CLEAR     40  38  93 NW7       30.26R FOG
6HR MIN TEMP:  38; 6HR MAX TEMP:  45;

AURORA         CLEAR     41  40  95 N9        30.25R FOG
HASTINGS       PTCLDY    42  40  92 N8        30.24R
6HR MIN TEMP:  42; 6HR MAX TEMP:  45;

KEARNEY *      PTCLDY    43  37  81 NW8       30.27R
$$

NEZ011>018-030>034-042>045-281300-
NORTHEAST NEBRASKA

CITY           SKY/WX    TMP DP  RH WIND       PRES   REMARKS
NORFOLK        CLEAR     45  41  86 NW9       30.24R
6HR MIN TEMP:  38; 6HR MAX TEMP:  49;

BLAIR          CLEAR     44  32  63 NW5       30.21R
COLUMBUS *     CLEAR     45  36  70 NW9       30.25R
FREMONT        CLEAR     38  34  84 W5        30.22R WCI  35
TEKAMAH        CLEAR     40  31  70 N6        30.22R
6HR MIN TEMP:  36; 6HR MAX TEMP:  44;

$$

NEZ050>053-065>068-078-088>093-281300-
SOUTHEAST NEBRASKA

CITY           SKY/WX    TMP DP  RH WIND       PRES   REMARKS
LINCOLN        CLEAR     37  33  85 N5        30.23R WCI  33
6HR MIN TEMP:  35; 6HR MAX TEMP:  44;

OMAHA EPPLEY   PTCLDY    41  37  86 NW6       30.20R
6HR MIN TEMP:  39; 6HR MAX TEMP:  46;

FALLS CITY     PTCLDY    42  36  79 W3        30.18R
6HR MIN TEMP:  42; 6HR MAX TEMP:  52;

PLATTSMOUTH    CLEAR     43  34  71 CALM      30.19S
$$

NEZ044-045-051>053-067-281300-
OMAHA AREA

CITY           SKY/WX    TMP DP  RH WIND       PRES   REMARKS
OMAHA EPPLEY   PTCLDY    41  37  86 NW6       30.20R
6HR MIN TEMP:  39; 6HR MAX TEMP:  46;

BLAIR          CLEAR     44  32  63 NW5       30.21R
FREMONT        CLEAR     38  34  84 W5        30.22R WCI  35
OFFUTT AFB     CLEAR     37  35  91 NW5       30.19R WCI  34
PLATTSMOUTH    CLEAR     43  34  71 CALM      30.19S
$$


USA.gov is the U.S. government's official web portal to all federal, state and local government web resources and services.